{"data":{"norad_id":87456,"intl_designator":"","name":"UNKNOWN","alt_names":[],"object_type":"UNKNOWN","status":"UNKNOWN","operator":null,"country":null,"launch_date":null,"launch_site_code":null,"launch_vehicle":null,"mission":null,"orbit_class":"UNKNOWN","rcs_meters":null,"size_class":null,"mass_kg":null,"dimensions":null,"purposes":[],"wikipedia_slug":null,"has_3d_model":false,"image_url":null,"decayed_at":null,"tle_current":{"epoch":"2026-05-23T22:23:58.964640Z","epoch_age_seconds":163280,"freshness":"FRESH","line1":"1 87456U          26143.93332135  .00001705  00000+0  25327-3 0  9999","line2":"2 87456  65.7701  19.2811 0510851 282.3669  72.0704 14.16028377634446","mean_motion":14.16028377,"eccentricity":0.0510851,"inclination_deg":65.7701,"raan_deg":19.2811,"arg_perigee_deg":282.3669,"mean_anomaly_deg":72.0704,"bstar":0.00025327,"rev_number":63444,"period_min":101.69287730312,"perigee_km":470.13712773542,"apogee_km":1207.4946476622,"semimajor_km":7216.9528876988,"source":"CELESTRAK","updated_at":"2026-05-25T13:38:11.670935Z"}}}